Change the Weather History Date:

Tuesday, October 16, 2012

  Actual Average Record
Temperature  
Mean Temperature 60 °F -  
Max Temperature 79 °F 63 °F 86 °F (1964)
Min Temperature 42 °F 33 °F 18 °F (1969)
Degree Days  
Heating Degree Days 4    
Growing Degree Days 10 (Base 50)    
Moisture  
Dew Point 36 °F    
Average Humidity 41    
Maximum Humidity 73    
Minimum Humidity 17    
Precipitation  
Precipitation 0.00 in - - ()
Sea Level Pressure  
Sea Level Pressure 29.65 in    
Wind  
Wind Speed 10 mph (West)    
Max Wind Speed 23 mph    
Max Gust Speed 32 mph    
Visibility 10 miles    
Events Rain    
Averages and records for this station are not official NWS values.
T = Trace of Precipitation, MM = Missing Value Source: NWS Daily Summary

Daily Weather History Graph

Daily Weather History Graph

Search for Another Location

Airport or City:

Trip Planner

Search our weather history database for the weather conditions in past years. The results will help you decide how hot, cold, wet, or windy it might be!

Date:

Astronomy

Oct. 16, 2012 Rise Set
Actual Time 7:00 AM MDT 6:04 PM MDT
Civil Twilight 6:32 AM MDT 6:31 PM MDT
Nautical Twilight 6:00 AM MDT 7:03 PM MDT
Astronomical Twilight 5:28 AM MDT 7:35 PM MDT
Moon 8:26 AM MDT (10/16) 6:48 PM MDT (10/16)
Length of Visible Light 11h 59m
Length of Day
11h 03m
New Moon, 2% of the Moon is Illuminated
Oct 16
New Moon
Oct 21
First Quarter
Oct 29
Full
Nov 6
Last Quarter
Nov 13
New

Hourly Weather History & Observations

Time (MDT) Temp. Windchill Dew Point Humidity Pressure Visibility Wind Dir Wind Speed Gust Speed Precip Events Conditions
12:15 AM 55.8 °F - 32.0 °F 41% 29.77 in 10.0 mi WSW 8.1 mph - N/A   Clear
12:35 AM 55.9 °F - 32.4 °F 41% 29.77 in 10.0 mi WNW 19.6 mph - N/A   Clear
12:55 AM 62.1 °F - 32.0 °F 32% 29.77 in 10.0 mi WNW 13.8 mph - N/A   Clear
1:15 AM 58.3 °F - 32.0 °F 37% 29.77 in 10.0 mi NW 11.5 mph - N/A   Clear
1:35 AM 57.2 °F - 32.2 °F 39% 29.77 in 10.0 mi NW 12.7 mph - N/A   Clear
2:15 AM 60.6 °F - 32.9 °F 35% 29.78 in 10.0 mi NW 15.0 mph - N/A   Clear
2:35 AM 60.8 °F - 32.9 °F 35% 29.78 in 10.0 mi NW 16.1 mph - N/A   Clear
2:55 AM 58.1 °F - 33.1 °F 39% 29.79 in 10.0 mi NW 12.7 mph - N/A   Clear
3:15 AM 57.4 °F - 33.8 °F 41% 29.79 in 10.0 mi NW 15.0 mph - N/A   Clear
3:35 AM 55.9 °F - 33.8 °F 43% 29.79 in 10.0 mi NW 16.1 mph - N/A   Clear
3:55 AM 54.5 °F - 34.0 °F 46% 29.79 in 10.0 mi NNW 16.1 mph - N/A   Clear
4:15 AM 54.5 °F - 34.7 °F 47% 29.80 in 10.0 mi NNW 15.0 mph - N/A   Clear
4:35 AM 53.2 °F - 35.2 °F 51% 29.80 in 10.0 mi NNW 13.8 mph - N/A   Clear
4:55 AM 52.5 °F - 35.4 °F 52% 29.81 in 10.0 mi NNW 11.5 mph - N/A   Clear
5:15 AM 51.8 °F - 35.6 °F 54% 29.81 in 10.0 mi NW 8.1 mph - N/A   Clear
5:35 AM 48.9 °F - 35.2 °F 59% 29.82 in 10.0 mi West 4.6 mph - N/A   Clear
6:15 AM 46.9 °F - 35.4 °F 64% 29.81 in 10.0 mi SW 3.5 mph - N/A   Clear
6:35 AM 48.0 °F - 35.4 °F 62% 29.81 in 10.0 mi WSW 3.5 mph - N/A   Clear
6:55 AM 44.2 °F 40.3 °F 34.7 °F 69% 29.81 in 10.0 mi WSW 6.9 mph - N/A   Clear
7:15 AM 43.0 °F 39.5 °F 34.3 °F 72% 29.80 in 10.0 mi WSW 5.8 mph - N/A   Clear
7:35 AM 42.3 °F 39.4 °F 34.2 °F 73% 29.80 in 10.0 mi WSW 4.6 mph - N/A   Clear
7:55 AM 44.6 °F 43.1 °F 35.1 °F 69% 29.80 in 10.0 mi WSW 3.5 mph - N/A   Clear
8:15 AM 47.5 °F - 36.0 °F 64% 29.80 in 10.0 mi West 8.1 mph - N/A   Clear
8:35 AM 49.3 °F - 36.5 °F 61% 29.79 in 10.0 mi West 5.8 mph - N/A   Clear
8:55 AM 52.0 °F - 36.9 °F 56% 29.79 in 10.0 mi WSW 5.8 mph - N/A   Clear
9:15 AM 54.0 °F - 37.4 °F 54% 29.79 in 10.0 mi SW 4.6 mph - N/A   Clear
9:35 AM 57.4 °F - 37.8 °F 48% 29.78 in 10.0 mi WSW 5.8 mph - N/A   Clear
9:55 AM 61.3 °F - 38.3 °F 43% 29.77 in 10.0 mi WSW 3.5 mph - N/A   Clear
10:15 AM 63.5 °F - 38.7 °F 40% 29.76 in 7.0 mi Calm Calm - N/A   Clear
10:35 AM 65.3 °F - 38.5 °F 37% 29.74 in 3.0 mi SW 5.8 mph - N/A   Haze
10:55 AM 67.3 °F - 37.9 °F 34% 29.72 in 10.0 mi SW 6.9 mph - N/A   Clear
11:15 AM 70.0 °F - 37.4 °F 30% 29.71 in 10.0 mi WSW 6.9 mph - N/A   Clear
11:35 AM 72.5 °F - 36.3 °F 27% 29.70 in 10.0 mi WSW 5.8 mph - N/A   Clear
11:55 AM 73.8 °F - 34.9 °F 24% 29.68 in 10.0 mi West 9.2 mph 18.4 mph N/A   Clear
12:15 PM 74.7 °F - 34.3 °F 23% 29.67 in 10.0 mi SW 10.4 mph - N/A   Clear
12:35 PM 75.0 °F - 34.5 °F 23% 29.64 in 10.0 mi West 12.7 mph 19.6 mph N/A   Clear
12:55 PM 75.4 °F - 34.2 °F 22% 29.62 in 10.0 mi West 10.4 mph 16.1 mph N/A   Clear
1:15 PM 74.8 °F - 33.6 °F 22% 29.61 in 10.0 mi West 8.1 mph - N/A   Clear
1:35 PM 78.1 °F - 33.6 °F 20% 29.59 in 10.0 mi West 11.5 mph 16.1 mph N/A   Clear
1:55 PM 77.2 °F - 33.3 °F 20% 29.57 in 10.0 mi WSW 11.5 mph 16.1 mph N/A   Clear
2:15 PM 77.9 °F - 33.4 °F 20% 29.56 in 10.0 mi WSW 10.4 mph 16.1 mph N/A   Clear
2:35 PM 79.5 °F - 33.6 °F 19% 29.54 in 10.0 mi WSW 9.2 mph - N/A   Clear
2:55 PM 78.1 °F - 33.1 °F 19% 29.53 in 10.0 mi WSW 12.7 mph 19.6 mph N/A   Clear
3:15 PM 79.2 °F - 31.3 °F 17% 29.52 in 10.0 mi West 16.1 mph 21.9 mph N/A   Clear
3:35 PM 77.9 °F - 30.9 °F 18% 29.52 in 10.0 mi WSW 19.6 mph 27.6 mph N/A   Clear
3:55 PM 76.8 °F - 30.0 °F 18% 29.51 in 10.0 mi WSW 15.0 mph 19.6 mph N/A   Mostly Cloudy
4:15 PM 76.8 °F - 30.2 °F 18% 29.51 in 10.0 mi West 15.0 mph 23.0 mph N/A   Overcast
4:35 PM 74.5 °F - 36.7 °F 25% 29.51 in 10.0 mi West 15.0 mph 25.3 mph N/A   Mostly Cloudy
4:55 PM 72.9 °F - 37.8 °F 28% 29.50 in 10.0 mi WSW 5.8 mph - N/A   Mostly Cloudy
5:15 PM 72.7 °F - 36.9 °F 27% 29.50 in 10.0 mi WSW 3.5 mph - N/A   Overcast
5:35 PM 70.9 °F - 37.6 °F 30% 29.49 in 10.0 mi SSW 3.5 mph - N/A   Mostly Cloudy
5:55 PM 69.6 °F - 36.0 °F 29% 29.47 in 4.0 mi SSW 5.8 mph - N/A   Haze
6:15 PM 68.2 °F - 35.1 °F 29% 29.47 in 7.0 mi SSW 4.6 mph - N/A   Clear
6:35 PM 66.2 °F - 34.9 °F 31% 29.46 in 10.0 mi SSW 3.5 mph - N/A   Clear
6:55 PM 60.8 °F - 35.6 °F 39% 29.46 in 10.0 mi West 3.5 mph - N/A   Scattered Clouds
7:15 PM 66.0 °F - 35.6 °F 32% 29.46 in 10.0 mi SSW 4.6 mph - N/A   Mostly Cloudy
7:35 PM 66.7 °F - 35.1 °F 31% 29.49 in 10.0 mi West 12.7 mph 17.3 mph N/A   Mostly Cloudy
7:55 PM 69.8 °F - 33.3 °F 26% 29.46 in 10.0 mi WNW 3.5 mph - N/A   Mostly Cloudy
8:15 PM 67.3 °F - 33.8 °F 29% 29.45 in 10.0 mi Calm Calm - N/A   Scattered Clouds
8:35 PM 66.9 °F - 37.9 °F 34% 29.51 in 10.0 mi NW 17.3 mph 21.9 mph N/A Rain Rain
8:55 PM 64.6 °F - 47.8 °F 55% 29.51 in 10.0 mi NW 16.1 mph - N/A   Light Drizzle
9:15 PM 61.3 °F - 48.2 °F 62% 29.50 in 10.0 mi WNW 3.5 mph - N/A   Scattered Clouds
9:35 PM 59.7 °F - 47.7 °F 64% 29.49 in 10.0 mi WSW 3.5 mph - N/A   Scattered Clouds
9:55 PM 61.2 °F - 47.8 °F 62% 29.51 in 10.0 mi WSW 9.2 mph - N/A   Clear
10:15 PM 60.8 °F - 48.4 °F 64% 29.52 in 10.0 mi WSW 9.2 mph - N/A   Scattered Clouds
10:35 PM 62.1 °F - 47.3 °F 58% 29.51 in 10.0 mi West 11.5 mph 16.1 mph N/A   Overcast
10:55 PM 64.2 °F - 45.7 °F 51% 29.54 in 10.0 mi West 13.8 mph 19.6 mph N/A   Overcast
11:15 PM 63.0 °F - 44.6 °F 51% 29.53 in 10.0 mi West 18.4 mph 32.2 mph N/A Rain Light Rain
11:35 PM 57.9 °F - 46.6 °F 66% 29.55 in 10.0 mi NW 19.6 mph 25.3 mph N/A   Overcast
11:55 PM 55.9 °F - 44.8 °F 66% 29.55 in 10.0 mi NNW 23.0 mph 28.8 mph N/A   Scattered Clouds